#timestamp,LO_Frequency 
1426838415.8,286078801.9
1426838435.7,286078798.8
1426838455.6,286078800.9
1426838475.4,286078801.1
1426838495.3,286078799.5
1426838515.2,286078796.9
1426838535.1,286078800.3
1426838536.0,286078800.3
1426838555.9,286078798.5
1426838575.7,286078798.5
1426838595.6,286078799.4
1426838615.5,286078798.8
1426838635.4,286078802.7
1426838655.3,286078796.1
1426838675.1,286078801.3
1426838695.0,286078798.7
1426838695.9,286078798.7
1426838715.8,286078802.3
1426838735.7,286078797.4
1426838755.6,286078798.8
1426838775.5,286078798.7
1426838795.3,286078800.3
1426838815.2,286078802.5
1426838835.1,286078799.3
1426838836.0,286078799.3
1426838855.9,286078798.6
1426838875.7,286078801.2
1426838895.6,286078799.3
1426838915.5,286078799.0
1426838935.4,286078803.0
1426838955.3,286078798.0
1426838975.1,286078801.4
1426838995.0,286078801.4
1426838995.9,286078801.4
1426839015.8,286078797.9
1426839035.7,286078793.9
1426839055.6,286078800.0
1426839075.4,286078801.3
1426839095.3,286078798.6
1426839115.2,286078804.1
1426839135.1,286078800.6
1426839136.0,286078800.6
1426839155.9,286078800.3
1426839175.7,286078798.3
1426839195.6,286078793.6
1426839215.5,286078801.9
1426839235.4,286078798.8
1426839255.2,286078799.1
1426839275.1,286078795.3
1426839295.9,286078799.3
1426839315.8,286078804.3
1426839335.6,286078800.8
1426839355.5,286078796.8
1426839375.4,286078797.3
1426839395.3,286078800.3
1426839415.2,286078795.3
1426839435.0,286078797.7
1426839436.0,286078797.7
1426839455.8,286078797.3
1426839475.7,286078798.6
1426839495.6,286078797.1
1426839515.5,286078801.2
1426839535.3,286078796.5
1426839555.2,286078795.3
1426839575.1,286078798.8
1426839576.0,286078798.8
1426839595.9,286078801.0
1426839615.8,286078799.6
1426839635.6,286078801.4
1426839655.5,286078797.4
1426839675.4,286078800.1
1426839695.3,286078796.8
1426839715.1,286078802.8
1426839735.0,286078801.1
1426839735.9,286078801.1
1426839755.8,286078797.8
1426839775.7,286078797.2
1426839795.6,286078795.5
1426839815.4,286078811.1
1426839835.3,286078821.6
1426839855.2,286078832.8
1426839875.1,286078827.1
1426839876.0,286078827.1
1426839895.8,286078795.0
1426839915.7,286078821.6
1426839935.6,286078824.0
1426839955.5,286078878.1
1426839975.4,286078822.9
1426839995.2,286078823.3
1426840015.1,286078833.1
1426840035.9,286078802.2
1426840055.8,286078785.3
1426840075.7,286078788.2
1426840095.5,286078788.5
1426840115.4,286078788.9
1426840135.3,286078792.9
1426840155.2,286078790.9
1426840175.0,286078795.0
1426840175.9,286078795.0
1426840195.8,286078796.1
1426840215.7,286078792.1
1426840235.6,286078796.3
1426840255.4,286078790.7
1426840275.3,286078794.0
1426840295.2,286078794.2
1426840315.1,286078792.0
1426840316.0,286078792.0
1426840335.9,286078804.7
1426840355.7,286078792.4
1426840375.6,286078796.2
1426840395.5,286078794.6
1426840415.4,286078796.3
1426840435.2,286078794.5
1426840455.1,286078794.8
1426840475.9,286078794.1
1426840495.8,286078796.5
1426840515.7,286078796.2
1426840535.5,286078797.6
1426840555.4,286078797.3
1426840575.3,286078801.0
1426840595.2,286078792.1
1426840615.0,286078795.2
1426840616.0,286078795.2
1426840635.8,286078801.0
1426840655.7,286078795.8
1426840675.6,286078796.8
1426840695.5,286078799.1
1426840715.3,286078793.9
1426840735.2,286078798.1
1426840755.1,286078796.8
1426840756.0,286078796.8
1426840775.9,286078799.7
1426840795.7,286078795.4
1426840815.6,286078799.3
1426840835.5,286078794.1
1426840855.4,286078795.5
1426840875.3,286078796.0
1426840895.1,286078795.9
1426840915.0,286078798.2
1426840915.9,286078798.2
1426840935.8,286078797.6
1426840955.7,286078796.9
1426840975.6,286078804.3
1426840995.4,286078795.8
1426841015.3,286078799.1
1426841035.2,286078798.5
1426841055.1,286078798.6
1426841056.0,286078798.6
1426841075.8,286078800.9
1426841095.7,286078799.3
1426841115.6,286078798.0
1426841135.5,286078795.5
1426841155.4,286078799.1
1426841175.2,286078798.4
1426841195.1,286078801.1
1426841215.9,286078796.5
1426841235.8,286078795.5
1426841255.7,286078797.1
1426841275.5,286078799.2
1426841295.4,286078801.0
1426841315.3,286078793.7
1426841335.2,286078799.7
1426841355.5,286078802.3
1426841375.4,286078795.2
1426841395.3,286078799.3
1426841415.1,286078799.6
1426841435.0,286078798.9
1426841435.9,286078798.9
1426841455.8,286078799.6
1426841475.7,286078796.8
1426841495.6,286078801.3
1426841515.4,286078798.6
1426841535.3,286078799.3
1426841555.2,286078799.1
1426841575.1,286078801.3
1426841576.0,286078801.3
1426841595.9,286078795.8
1426841615.8,286078797.4
1426841635.6,286078798.6
1426841655.5,286078801.2
1426841675.4,286078798.6
1426841695.3,286078799.6
1426841715.1,286078799.0
1426841735.0,286078798.9
1426841735.9,286078798.9
1426841755.8,286078800.9
1426841775.7,286078799.9
1426841795.5,286078799.5
1426841815.4,286078799.2
1426841835.3,286078795.6
1426841855.2,286078804.2
1426841875.1,286078797.3
1426841876.0,286078797.3
1426841895.8,286078800.1
1426841915.7,286078801.2
1426841935.6,286078797.0
1426841955.5,286078801.3
1426841975.3,286078799.2
1426841995.2,286078798.7
